This is the latest recevied weather packets stored in our database for station/object VY2CRA-4. If no packets are shown the sender has not sent any weather packets the latest 10 day(s).
| Time | Temp. | Humidity | Pressure | Rain* | Wind** | Luminosity | Snow |
|---|---|---|---|---|---|---|---|
| 1788159943 | 21.11° C | 45% | 1006 hPa | 0 mm | - | - | - |
| 1788158742 | 21.11° C | 44% | 1006.1 hPa | 0 mm | - | - | - |
| 1788156340 | 21.11° C | 43% | 1006.1 hPa | 0 mm | - | - | - |
| 1788155139 | 21.67° C | 42% | 1006 hPa | 0 mm | - | - | - |
| 1788152738 | 22.22° C | 42% | 1006.5 hPa | 0 mm | - | - | - |
| 1788151537 | 22.22° C | 42% | 1006.8 hPa | 0 mm | - | - | - |
| 1788149135 | 22.78° C | 40% | 1006.7 hPa | 0 mm | - | - | - |
| 1788147934 | 22.78° C | 39% | 1006.3 hPa | 0 mm | - | - | - |
| 1788146734 | 23.33° C | 39% | 1006.3 hPa | 0 mm | - | - | - |
| 1788145532 | 23.33° C | 38% | 1006.3 hPa | 0 mm | - | - | - |
| 1788144331 | 23.33° C | 37% | 1006.5 hPa | 0 mm | - | - | - |
| 1788143130 | 23.33° C | 36% | 1006.4 hPa | 0 mm | - | - | - |
| 1788141929 | 23.89° C | 36% | 1006.4 hPa | 0 mm | - | - | - |
| 1788140728 | 23.89° C | 35% | 1006.4 hPa | 0 mm | - | - | - |
| 1788138326 | 24.44° C | 34% | 1007.1 hPa | 0 mm | - | - | - |
| 1788137126 | 25° C | 33% | 1007.1 hPa | 0 mm | - | - | - |
| 1788135924 | 25° C | 32% | 1006.8 hPa | 0 mm | - | - | - |
| 1788134723 | 25.56° C | 31% | 1006.9 hPa | 0 mm | - | - | - |
| 1788133523 | 25.56° C | 30% | 1006.8 hPa | 0 mm | - | - | - |
| 1788131121 | 26.67° C | 27% | 1006.8 hPa | 0 mm | - | - | - |
| 1788129920 | 27.22° C | 26% | 1006.9 hPa | 0 mm | - | - | - |
| 1788127518 | 28.33° C | 25% | 1007.3 hPa | 0 mm | - | - | - |
| 1788126317 | 28.33° C | 24% | 1007.2 hPa | 0 mm | - | - | - |
| 1788125116 | 28.33° C | 24% | 1007.4 hPa | 0 mm | - | - | - |
| 1788123915 | 28.33° C | 25% | 1007.3 hPa | 0 mm | - | - | - |
* Rain since midnight (hover to see other rain measurements)
** Current wind speed in m/s (hover to see current wind gust speed)